User: anonymous   Login
Location: Unspecified
(0.0000°N, 0.0000°E)
Time: 02:41:09
(UTC+00:00)
Language:

STSS DEMO 1 (USA 208) - Orbit

View from above orbital plane
View from above orbital plane
View from above satellite
View from above satellite

Ground track
Ground track

The orbit data is extracted from the following two-line orbital elements,

1 35937U 09052A   14315.12112682 0.00000100  00000-0  44358-3 0    01
2 35937  57.9917  69.6454 0014464  50.3681 309.6319 12.79132114    05
Epoch (UTC): 11 November 2014 02:54:25
Eccentricity: 0.0014464
inclination: 57.9917°
perigee height: 1334 km
apogee height: 1356 km
right ascension of ascending node: 69.6454°
argument of perigee: 50.3681°
revolutions per day: 12.79132114
mean anomaly at epoch: 309.6319°
orbit number at epoch: 0

The dashed part of the orbit path shows where the satellite is in the earth's shadow,  

DLR